• In Belarus
  • List of Countries
  • For 7 days
  • Water Temperature
  • Weather Map
  • Weather Widgets
  • user-avatar
    Login

    Hourly Weather Canberra

    Today, 31 May, Sunday

    Time Temperature Precipitation Wind Pressure Humidity
    00:00 +7°C° 0 mm 2 mps 710 mmHg 92%
    01:00 +7°C° 0 mm 2 mps 710 mmHg 92%
    02:00 +8°C° 0.1 mm 3 mps 710 mmHg 91%
    03:00 +8°C° 0.1 mm 3 mps 709 mmHg 89%
    04:00 +8°C° 0 mm 4 mps 709 mmHg 88%
    05:00 +8°C° 0 mm 3 mps 709 mmHg 90%
    06:00 +8°C° 0 mm 3 mps 709 mmHg 92%
    07:00 +7°C° 0 mm 3 mps 709 mmHg 94%
    08:00 +8°C° 0 mm 3 mps 709 mmHg 90%
    09:00 +9°C° 0 mm 3 mps 709 mmHg 85%
    10:00 +10°C° 0 mm 2 mps 709 mmHg 82%
    11:00 +11°C° 0 mm 3 mps 709 mmHg 74%
    12:00 +12°C° 0 mm 4 mps 708 mmHg 66%
    13:00 +14°C° 0 mm 5 mps 708 mmHg 58%
    14:00 +13°C° 0 mm 5 mps 708 mmHg 61%
    15:00 +13°C° 0 mm 5 mps 707 mmHg 64%
    16:00 +12°C° 0 mm 5 mps 707 mmHg 66%
    17:00 +11°C° 0 mm 4 mps 707 mmHg 71%
    18:00 +10°C° 0 mm 3 mps 707 mmHg 76%
    19:00 +9°C° 0 mm 2 mps 707 mmHg 81%
    20:00 +9°C° 0 mm 2 mps 706 mmHg 82%
    21:00 +9°C° 0 mm 2 mps 706 mmHg 82%
    22:00 +9°C° 0 mm 2 mps 706 mmHg 83%
    23:00 +8°C° 0 mm 2 mps 705 mmHg 84%

    Tomorrow, 1 June, Monday

    Time Temperature Precipitation Wind Pressure Humidity
    00:00 +8°C° 0 mm 2 mps 705 mmHg 85%
    01:00 +7°C° 0 mm 2 mps 704 mmHg 86%
    02:00 +7°C° 0.1 mm 3 mps 704 mmHg 87%
    03:00 +7°C° 0.1 mm 3 mps 703 mmHg 87%
    04:00 +7°C° 0.1 mm 3 mps 703 mmHg 87%
    05:00 +7°C° 0.1 mm 3 mps 703 mmHg 88%
    06:00 +7°C° 0.1 mm 3 mps 702 mmHg 89%
    07:00 +7°C° 0.1 mm 3 mps 702 mmHg 90%
    08:00 +7°C° 0 mm 5 mps 702 mmHg 84%
    09:00 +8°C° 0 mm 6 mps 702 mmHg 78%
    10:00 +9°C° 0 mm 8 mps 702 mmHg 71%
    11:00 +8°C° 0.7 mm 7 mps 702 mmHg 77%
    12:00 +5°C° 0.7 mm 6 mps 701 mmHg 83%
    13:00 +5°C° 0.7 mm 5 mps 701 mmHg 89%
    14:00 +5°C° 0.3 mm 5 mps 701 mmHg 89%
    15:00 +5°C° 0.3 mm 5 mps 702 mmHg 89%
    16:00 +5°C° 0.3 mm 5 mps 702 mmHg 90%
    17:00 +4°C° 0 mm 4 mps 703 mmHg 91%
    18:00 +3°C° 0 mm 4 mps 703 mmHg 92%
    19:00 +1°C° 0 mm 4 mps 704 mmHg 93%
    20:00 +1°C° 0 mm 4 mps 704 mmHg 92%
    21:00 +1°C° 0 mm 4 mps 704 mmHg 92%
    22:00 +1°C° 0 mm 4 mps 705 mmHg 91%
    23:00 +1°C° 0 mm 4 mps 705 mmHg 92%

    Day after tomorrow, 2 June, Tuesday

    Time Temperature Precipitation Wind Pressure Humidity
    00:00 +2°C° 0 mm 3 mps 705 mmHg 93%
    01:00 +2°C° 0 mm 3 mps 705 mmHg 93%
    02:00 +2°C° 0 mm 3 mps 705 mmHg 94%
    03:00 +3°C° 0 mm 2 mps 705 mmHg 95%
    04:00 +3°C° 0 mm 2 mps 705 mmHg 95%
    05:00 +3°C° 0 mm 2 mps 706 mmHg 95%
    06:00 +2°C° 0 mm 2 mps 706 mmHg 95%
    07:00 +2°C° 0 mm 2 mps 707 mmHg 95%
    08:00 +4°C° 0 mm 2 mps 707 mmHg 89%
    09:00 +5°C° 0 mm 3 mps 708 mmHg 83%
    10:00 +7°C° 0 mm 3 mps 709 mmHg 77%
    11:00 +9°C° 0 mm 3 mps 709 mmHg 69%
    12:00 +10°C° 0 mm 3 mps 709 mmHg 61%
    13:00 +12°C° 0 mm 3 mps 709 mmHg 53%
    14:00 +11°C° 0 mm 3 mps 709 mmHg 56%
    15:00 +11°C° 0 mm 3 mps 709 mmHg 59%
    16:00 +10°C° 0 mm 3 mps 709 mmHg 62%
    17:00 +8°C° 0 mm 3 mps 709 mmHg 72%
    18:00 +5°C° 0 mm 3 mps 710 mmHg 82%
    19:00 +4°C° 0 mm 3 mps 710 mmHg 91%
    20:00 +4°C° 0 mm 2 mps 710 mmHg 92%
    21:00 +4°C° 0 mm 2 mps 710 mmHg 93%
    22:00 +4°C° 0 mm 2 mps 711 mmHg 93%
    23:00 +4°C° 0 mm 2 mps 711 mmHg 93%

    3 June, Wednesday

    Time Temperature Precipitation Wind Pressure Humidity
    00:00 +3°C° 0 mm 3 mps 710 mmHg 93%
    01:00 +3°C° 0 mm 3 mps 710 mmHg 93%
    02:00 +3°C° 0 mm 3 mps 710 mmHg 94%
    03:00 +3°C° 0 mm 3 mps 710 mmHg 95%
    04:00 +4°C° 0 mm 2 mps 710 mmHg 96%
    05:00 +4°C° 0 mm 2 mps 710 mmHg 96%
    06:00 +3°C° 0 mm 2 mps 711 mmHg 96%
    07:00 +3°C° 0 mm 2 mps 712 mmHg 97%
    08:00 +5°C° 0 mm 2 mps 712 mmHg 89%
    09:00 +8°C° 0 mm 1 mps 713 mmHg 81%
    10:00 +10°C° 0 mm 1 mps 714 mmHg 73%
    11:00 +11°C° 0 mm 1 mps 714 mmHg 64%
    12:00 +12°C° 0 mm 1 mps 714 mmHg 56%
    13:00 +14°C° 0 mm 1 mps 714 mmHg 48%
    14:00 +13°C° 0 mm 2 mps 714 mmHg 50%
    15:00 +12°C° 0 mm 2 mps 715 mmHg 51%
    16:00 +10°C° 0 mm 2 mps 715 mmHg 53%
    17:00 +8°C° 0 mm 2 mps 715 mmHg 61%
    18:00 +6°C° 0 mm 2 mps 716 mmHg 68%
    19:00 +3°C° 0 mm 2 mps 716 mmHg 76%
    20:00 +3°C° 0 mm 2 mps 717 mmHg 79%
    21:00 +2°C° 0 mm 2 mps 717 mmHg 82%
    22:00 +2°C° 0 mm 2 mps 718 mmHg 85%
    23:00 +1°C° 0 mm 2 mps 718 mmHg 86%

    4 June, Thursday

    Time Temperature Precipitation Wind Pressure Humidity
    00:00 +1°C° 0 mm 2 mps 718 mmHg 88%
    01:00 +1°C° 0 mm 1 mps 718 mmHg 90%
    02:00 +1°C° 0 mm 1 mps 718 mmHg 90%
    03:00 +1°C° 0 mm 1 mps 718 mmHg 91%
    04:00 +1°C° 0 mm 1 mps 718 mmHg 92%
    05:00 0°C° 0 mm 1 mps 718 mmHg 91%
    06:00 0°C° 0 mm 1 mps 719 mmHg 91%
    07:00 0°C° 0 mm 1 mps 719 mmHg 91%
    08:00 +3°C° 0 mm 1 mps 720 mmHg 79%
    09:00 +6°C° 0 mm 1 mps 720 mmHg 67%
    10:00 +9°C° 0 mm 1 mps 720 mmHg 56%
    11:00 +10°C° 0 mm 1 mps 720 mmHg 52%
    12:00 +11°C° 0 mm 1 mps 720 mmHg 47%
    13:00 +12°C° 0 mm 0 mps 719 mmHg 43%
    14:00 +12°C° 0 mm 1 mps 719 mmHg 47%
    15:00 +11°C° 0 mm 1 mps 719 mmHg 51%
    16:00 +11°C° 0 mm 1 mps 718 mmHg 56%
    17:00 +8°C° 0 mm 0 mps 718 mmHg 63%
    18:00 +5°C° 0 mm 0 mps 718 mmHg 70%
    19:00 +3°C° 0 mm 0 mps 719 mmHg 77%
    20:00 +3°C° 0 mm 0 mps 719 mmHg 79%
    21:00 +3°C° 0 mm 0 mps 719 mmHg 81%
    22:00 +2°C° 0 mm 0 mps 719 mmHg 83%
    23:00 +2°C° 0 mm 0 mps 718 mmHg 84%

    5 June, Friday

    Time Temperature Precipitation Wind Pressure Humidity
    00:00 +2°C° 0 mm 0 mps 718 mmHg 85%
    01:00 +1°C° 0 mm 0 mps 718 mmHg 86%
    02:00 +1°C° 0 mm 0 mps 718 mmHg 86%
    03:00 +1°C° 0 mm 0 mps 717 mmHg 86%
    04:00 +1°C° 0 mm 0 mps 717 mmHg 86%
    05:00 0°C° 0 mm 0 mps 717 mmHg 86%
    06:00 0°C° 0 mm 0 mps 717 mmHg 86%
    07:00 0°C° 0 mm 0 mps 717 mmHg 86%
    08:00 +4°C° 0 mm 1 mps 717 mmHg 77%
    09:00 +6°C° 0 mm 1 mps 717 mmHg 68%
    10:00 +8°C° 0 mm 2 mps 717 mmHg 59%
    11:00 +9°C° 0 mm 2 mps 717 mmHg 55%
    12:00 +11°C° 0 mm 3 mps 716 mmHg 51%
    13:00 +12°C° 0 mm 3 mps 716 mmHg 47%
    14:00 +12°C° 0 mm 3 mps 715 mmHg 50%
    15:00 +11°C° 0 mm 3 mps 715 mmHg 53%
    16:00 +10°C° 0 mm 3 mps 714 mmHg 56%
    17:00 +8°C° 0 mm 3 mps 714 mmHg 65%
    18:00 +6°C° 0 mm 2 mps 714 mmHg 74%
    19:00 +4°C° 0 mm 2 mps 714 mmHg 83%
    20:00 +4°C° 0 mm 1 mps 714 mmHg 85%
    21:00 +4°C° 0 mm 1 mps 714 mmHg 86%
    22:00 +3°C° 0 mm 1 mps 714 mmHg 88%
    23:00 +3°C° 0 mm 1 mps 714 mmHg 88%
    Show more